STARLINK-1655 (47623 NORAD) Tracking and Keplerian Element Data

This shows tracking and keplerian element data for the satellite.

Feedback or suggestion? Click here.




ElementValue
Catalog47623
NameSTARLINK-1655
Epoch Orbit282
Epoch Day60.16668981
Epoch Year2021
RAAN36.8231
Inclination53.0498
Eccentricity0.0007343
Argument of Perigee282.9265
Mean Anonmoly201.5065
Mean Motion15.86683155
Decay Rate0.00046794
L11 47623U 21012D 21060.16668981 .00046794 00000-0 18154-3 0 9994
L22 47623 53.0498 36.8231 0007343 282.9265 201.5065 15.86683155 2826

Live tracking and technical data element details for STARLINK-1655 (NORAD 47623). STARLINK-1655 can be tracked NOW for your location showing map with azimuth and elevation plus other details from your city location.

Track the satellite on the map from your city or location and see movement details for azimuth, elevation, latitude, longitude, range, height, and movement on the map or in text.







IsCatalogInMostPopularTable: catalog: 47623, numindb: 4
Update: records affected: 1



GetName: 47623 STARLINK-1655

Hit Count: updated at: Mon, 01 Mar 2021 15:57:40 GMT